TimeCST,TemperatureF,Dew PointF,Humidity,Sea Level PressureIn,VisibilityMPH,Wind Direction,Wind SpeedMPH,Gust SpeedMPH,PrecipitationIn,Events,Conditions,WindDirDegrees,DateUTC
12:15 AM,24.8,15.8,69,30.10,10.0,WNW,13.8,-,N/A,,Overcast,300,2012-11-28 06:15:00
12:35 AM,24.8,15.8,69,30.11,10.0,NW,13.8,20.7,N/A,,Overcast,310,2012-11-28 06:35:00
12:55 AM,23.0,12.2,63,30.12,10.0,WNW,15.0,26.5,N/A,,Overcast,300,2012-11-28 06:55:00
1:15 AM,23.0,12.2,63,30.13,10.0,WNW,15.0,27.6,N/A,,Overcast,300,2012-11-28 07:15:00
1:35 AM,21.2,10.4,63,30.13,10.0,NW,13.8,20.7,N/A,,Overcast,310,2012-11-28 07:35:00
1:55 AM,21.2,10.4,63,30.14,10.0,NW,10.4,16.1,N/A,,Overcast,310,2012-11-28 07:55:00
2:15 AM,21.2,12.2,68,30.14,10.0,NW,9.2,-,N/A,,Overcast,310,2012-11-28 08:15:00
2:35 AM,21.2,14.0,74,30.14,10.0,NW,10.4,-,N/A,,Overcast,310,2012-11-28 08:35:00
2:55 AM,21.2,12.2,68,30.15,10.0,NW,9.2,-,N/A,,Overcast,310,2012-11-28 08:55:00
3:15 AM,21.2,15.8,80,30.16,9.0,NW,12.7,-,N/A,,Overcast,310,2012-11-28 09:15:00
3:35 AM,21.2,14.0,74,30.16,9.0,NW,10.4,-,N/A,,Overcast,320,2012-11-28 09:35:00
3:55 AM,21.2,12.2,68,30.16,10.0,NW,11.5,-,N/A,,Overcast,320,2012-11-28 09:55:00
4:15 AM,19.4,14.0,80,30.17,10.0,NW,15.0,-,N/A,,Overcast,320,2012-11-28 10:15:00
4:35 AM,19.4,12.2,74,30.17,10.0,NW,13.8,19.6,N/A,,Overcast,310,2012-11-28 10:35:00
4:55 AM,19.4,12.2,74,30.18,10.0,NW,11.5,-,N/A,,Overcast,310,2012-11-28 10:55:00
5:15 AM,19.4,12.2,74,30.19,10.0,NW,11.5,-,N/A,,Overcast,310,2012-11-28 11:15:00
5:35 AM,19.4,10.4,68,30.19,10.0,NW,9.2,-,N/A,,Overcast,310,2012-11-28 11:35:00
5:55 AM,19.4,12.2,74,30.19,10.0,WNW,11.5,-,N/A,,Overcast,300,2012-11-28 11:55:00
6:15 AM,19.4,10.4,68,30.20,10.0,NW,12.7,-,N/A,,Overcast,310,2012-11-28 12:15:00
6:35 AM,19.4,10.4,68,30.20,10.0,NW,9.2,-,N/A,,Overcast,320,2012-11-28 12:35:00
6:55 AM,19.4,10.4,68,30.20,10.0,WNW,8.1,-,N/A,,Overcast,300,2012-11-28 12:55:00
7:15 AM,19.4,10.4,68,30.21,10.0,WNW,8.1,-,N/A,,Overcast,300,2012-11-28 13:15:00
7:35 AM,19.4,10.4,68,30.21,10.0,WNW,9.2,-,N/A,,Overcast,290,2012-11-28 13:35:00
7:55 AM,19.4,10.4,68,30.21,10.0,West,9.2,-,N/A,,Overcast,280,2012-11-28 13:55:00
8:15 AM,17.6,8.6,68,30.22,10.0,WNW,5.8,-,N/A,,Overcast,290,2012-11-28 14:15:00
8:35 AM,17.6,10.4,73,30.21,7.0,West,6.9,-,N/A,,Overcast,260,2012-11-28 14:35:00
8:55 AM,17.6,10.4,73,30.21,7.0,West,11.5,-,N/A,,Overcast,270,2012-11-28 14:55:00
9:15 AM,17.6,10.4,73,30.21,9.0,West,12.7,-,N/A,,Overcast,260,2012-11-28 15:15:00
9:35 AM,17.6,10.4,73,30.22,10.0,West,12.7,-,N/A,,Overcast,270,2012-11-28 15:35:00
9:55 AM,17.6,8.6,68,30.23,10.0,West,17.3,-,N/A,,Overcast,260,2012-11-28 15:55:00
10:15 AM,17.6,10.4,73,30.23,10.0,West,13.8,-,N/A,,Overcast,260,2012-11-28 16:15:00
10:35 AM,19.4,8.6,63,30.22,10.0,WSW,12.7,-,N/A,,Overcast,240,2012-11-28 16:35:00
10:55 AM,19.4,10.4,68,30.22,10.0,WSW,11.5,-,N/A,,Overcast,250,2012-11-28 16:55:00
11:15 AM,19.4,8.6,63,30.21,10.0,WSW,9.2,-,N/A,,Overcast,240,2012-11-28 17:15:00
11:35 AM,19.4,8.6,63,30.20,10.0,WSW,13.8,-,N/A,,Overcast,250,2012-11-28 17:35:00
11:55 AM,19.4,8.6,63,30.20,10.0,West,11.5,-,N/A,,Overcast,260,2012-11-28 17:55:00
12:35 PM,19.4,10.4,68,30.18,10.0,SSW,12.7,-,N/A,,Scattered Clouds,210,2012-11-28 18:35:00
12:55 PM,21.2,10.4,63,30.17,10.0,SSW,10.4,-,N/A,,Mostly Cloudy,210,2012-11-28 18:55:00
1:15 PM,21.2,8.6,58,30.16,10.0,SW,10.4,-,N/A,,Partly Cloudy,220,2012-11-28 19:15:00
1:35 PM,21.2,10.4,63,30.15,10.0,SW,11.5,-,N/A,,Clear,220,2012-11-28 19:35:00
1:55 PM,21.2,10.4,63,30.15,10.0,SW,11.5,-,N/A,,Clear,220,2012-11-28 19:55:00
2:15 PM,21.2,12.2,68,30.14,10.0,SW,10.4,-,N/A,,Clear,220,2012-11-28 20:15:00
2:35 PM,23.0,10.4,59,30.13,10.0,SW,10.4,-,N/A,,Clear,220,2012-11-28 20:35:00
2:55 PM,23.0,10.4,59,30.12,10.0,SW,9.2,-,N/A,,Clear,230,2012-11-28 20:55:00
3:15 PM,23.0,10.4,59,30.12,10.0,SW,9.2,-,N/A,,Clear,220,2012-11-28 21:15:00
3:35 PM,23.0,10.4,59,30.10,10.0,SSW,5.8,-,N/A,,Clear,200,2012-11-28 21:35:00
3:55 PM,21.2,10.4,63,30.10,10.0,SSW,4.6,-,N/A,,Clear,200,2012-11-28 21:55:00
4:15 PM,21.2,10.4,63,30.10,10.0,SSW,4.6,-,N/A,,Clear,200,2012-11-28 22:15:00
4:35 PM,21.2,10.4,63,30.10,10.0,South,3.5,-,N/A,,Clear,190,2012-11-28 22:35:00
4:55 PM,21.2,10.4,63,30.10,10.0,SSW,4.6,-,N/A,,Clear,210,2012-11-28 22:55:00
5:15 PM,21.2,10.4,63,30.09,10.0,SSW,5.8,-,N/A,,Clear,210,2012-11-28 23:15:00
5:35 PM,21.2,12.2,68,30.08,10.0,SSW,8.1,-,N/A,,Clear,210,2012-11-28 23:35:00
5:55 PM,21.2,12.2,68,30.08,10.0,SSW,11.5,19.6,N/A,,Clear,200,2012-11-28 23:55:00
6:15 PM,23.0,12.2,63,30.08,10.0,SSW,11.5,18.4,N/A,,Clear,210,2012-11-29 00:15:00
6:35 PM,24.8,14.0,64,30.07,10.0,SW,11.5,19.6,N/A,,Clear,220,2012-11-29 00:35:00
6:55 PM,24.8,14.0,64,30.06,10.0,SW,11.5,-,N/A,,Clear,220,2012-11-29 00:55:00
7:15 PM,24.8,15.8,69,30.06,10.0,SW,11.5,16.1,N/A,,Clear,220,2012-11-29 01:15:00
7:35 PM,24.8,15.8,69,30.05,10.0,SSW,11.5,16.1,N/A,,Clear,210,2012-11-29 01:35:00
7:55 PM,24.8,15.8,69,30.05,10.0,SW,9.2,-,N/A,,Scattered Clouds,220,2012-11-29 01:55:00
8:15 PM,24.8,15.8,69,30.05,10.0,SW,10.4,-,N/A,,Scattered Clouds,220,2012-11-29 02:15:00
8:35 PM,26.6,17.6,69,30.05,10.0,SW,10.4,-,N/A,,Clear,220,2012-11-29 02:35:00
8:55 PM,26.6,17.6,69,30.05,10.0,SW,12.7,-,N/A,,Clear,220,2012-11-29 02:55:00
9:15 PM,26.6,17.6,69,30.05,10.0,SW,11.5,-,N/A,,Scattered Clouds,230,2012-11-29 03:15:00
9:35 PM,26.6,17.6,69,30.05,10.0,SW,11.5,-,N/A,,Scattered Clouds,220,2012-11-29 03:35:00
9:55 PM,26.6,17.6,69,30.07,10.0,WNW,9.2,-,N/A,,Clear,290,2012-11-29 03:55:00
10:15 PM,26.6,15.8,64,30.08,10.0,WNW,3.5,-,N/A,,Clear,290,2012-11-29 04:15:00
10:35 PM,26.6,17.6,69,30.08,10.0,SSW,3.5,-,N/A,,Clear,200,2012-11-29 04:35:00
10:55 PM,23.0,12.2,63,30.07,10.0,SSW,4.6,-,N/A,,Clear,210,2012-11-29 04:55:00
11:15 PM,24.8,17.6,74,30.06,10.0,SW,8.1,-,N/A,,Clear,220,2012-11-29 05:15:00
11:35 PM,24.8,17.6,74,30.06,10.0,SW,8.1,-,N/A,,Clear,220,2012-11-29 05:35:00
11:55 PM,24.8,17.6,74,30.06,10.0,SW,6.9,-,N/A,,Partly Cloudy,230,2012-11-29 05:55:00